Flag for Germany Weather past 2 weeks in Schorndorf, Baden-Württemberg, Germany

Now
43 °F

Overcast.


Feels Like: 40 °F
Forecast: 34 / 49 °F
Wind: 6 mph from Southwest

Location: Stuttgart-Echterdingen

Current Time: Dec 22, 2014 at 11:35:43 AM

Latest Report: Dec 22, 2014 at 11:00 AM


Visibility: 38 mi

Pressure: 30.38 "Hg

Humidity: 73%

Dew point: 35 °F

Location of SchorndorfLocation

Historic Weather in Schorndorf — Graph

°F

Schorndorf temperature yesterday

Maximum temperature yesterday: 43 °F (at 3:00 PM)
Minimum temperature yesterday: 37 °F (at 5:00 AM)
Average temperature yesterday: 41 °F

Past Weeks' High & Low Weather Summary

 TemperatureHumidityPressure
High54 °F (Dec 18, 9:00 PM)98% (Dec 16, 6:00 AM)30.56 "Hg (Dec 16, 6:00 AM)
Low29 °F (Dec 9, 3:00 AM)55% (Dec 12, 1:00 PM)29.76 "Hg (Dec 12, 7:00 PM)
Average42 °F82%30.13 "Hg
* Reported Dec 7 9:00 AM — Dec 22 9:00 AM, Schorndorf, Weather by CustomWeather, © 2014

Note: Actual official high and low records may vary slightly from our data, if they occured in-between our weather recording intervals... More about our weather records

Advertising

Schorndorf weather history for previous 24 hours

 ConditionsComfort  
Time TempWeatherWind HumidityBarometerVisibility
9:00 AM
Dec 22
41 °FOvercast.5 mph75%30.40 "Hg37 mi
8:00 AM41 °FOvercast.5 mph74%30.40 "Hg37 mi
7:00 AM41 °FOvercast.5 mph74%30.39 "Hg37 mi
6:00 AM41 °FOvercast.5 mph74%30.39 "Hg37 mi
5:00 AM41 °FOvercast.3 mph73%30.42 "Hg37 mi
3:00 AM42 °FOvercast.5 mph71%30.44 "Hg34 mi
2:00 AM42 °FOvercast.5 mph72%30.44 "Hg31 mi
1:00 AM42 °FOvercast.5 mph73%30.44 "Hg34 mi
12:00 AM42 °FOvercast.3 mph74%30.45 "Hg3 mi
11:00 PM
Dec 21
42 °FOvercast.N/A74%30.47 "Hg34 mi
9:00 PM42 °FOvercast.5 mph71%30.49 "Hg37 mi
8:00 PM41 °FOvercast.3 mph74%30.50 "Hg37 mi
7:00 PM41 °FOvercast.2 mph76%30.50 "Hg37 mi
6:00 PM42 °FOvercast.3 mph72%30.50 "Hg40 mi
5:00 PM42 °FOvercast.3 mph69%30.51 "Hg40 mi
3:00 PM43 °FOvercast.3 mph70%30.50 "Hg37 mi
2:00 PM42 °FOvercast.3 mph75%30.51 "Hg37 mi
1:00 PM43 °FOvercast.5 mph75%30.54 "Hg34 mi
12:00 PM43 °FOvercast.5 mph75%30.55 "Hg34 mi
11:00 AM42 °FPartly sunny.5 mph80%30.56 "Hg31 mi
Weather by CustomWeather, © 2014

See weather overviewHow to use our weather pages